sat.trackr.live / text

‹ back to catalog

HULIANWANG DIGUI-49

NORAD 65106 · 2025-168A

PAYLOAD ACTIVE UNKNOWN

§ Identity

Operator
Country
PRC
Launch date
2025-08-04
Launch site
WSC
Launch vehicle
Mass (kg)
RCS (m²)

External: N2YO · Heavens-Above · Gunter

§ Orbital elements

Epoch: 2026-05-25T03:45:11.357280Z

Period
108.33 min
Inclination
50.0042°
Eccentricity
0.0008528
Mean motion
13.29317710 rev/d
Perigee alt
1,142.9 km
Apogee alt
1,155.8 km
Semi-major
7,527.5 km
B*
1.1421e-4
RAAN
48.5662°
Arg perigee
33.8082°
Mean anomaly
326.3333°
Rev number
3,962

§ Raw data

HULIANWANG DIGUI-491 65106U 25168A   26145.15638145 -.00000071  00000+0  11421-3 0  99912 65106  50.0042  48.5662 0008528  33.8082 326.3333 13.29317710 39626

JSON: /api/v1/satellites/65106 · /tle

For live sub-satellite position, see the globe view (requires WebGL).

§ Visibility from observer

Set your observer location to see the next 7 days of passes ≥ 10°. The values pass through the URL so the page stays shareable.

No JS? Fill the form by hand. The geolocation button needs JavaScript.